Satellite: NOAA-12
Catalog number: 21263
Epoch time: 08017.45261252
Element set: 508
Inclination: 098.7639 deg
RA of node: 019.4441 deg
Eccentricity: 0.0012151
Arg of perigee: 202.3665 deg
Mean anomaly: 157.7001 deg
Mean motion: 14.25513302 rev/day
Decay rate: 1.66e-06 rev/day^2
Epoch rev: 86677
Checksum: 276
Satellite: MET-3/5
Catalog number: 21655
Epoch time: 08015.88700235
Element set: 0431
Inclination: 082.5516 deg
RA of node: 212.6595 deg
Eccentricity: 0.0014483
Arg of perigee: 039.4017 deg
Mean anomaly: 320.8156 deg
Mean motion: 13.17014215 rev/day
Decay rate: 5.1e-07 rev/day^2
Epoch rev: 78940
Checksum: 278
Satellite: MET-2/21
Catalog number: 22782
Epoch time: 08016.84264035
Element set: 39
Inclination: 082.5446 deg
RA of node: 232.4110 deg
Eccentricity: 0.0022599
Arg of perigee: 001.0985 deg
Mean anomaly: 359.0233 deg
Mean motion: 13.83623976 rev/day
Decay rate: -5.8e-07 rev/day^2
Epoch rev: 72606
Checksum: 296
Satellite: OKEAN-4
Catalog number: 23317
Epoch time: 08017.40460423
Element set: 480
Inclination: 082.5396 deg
RA of node: 096.7002 deg
Eccentricity: 0.0020393
Arg of perigee: 267.3372 deg
Mean anomaly: 092.5500 deg
Mean motion: 14.82571197 rev/day
Decay rate: 2.85e-06 rev/day^2
Epoch rev: 71579
Checksum: 295
Satellite: NOAA-14
Catalog number: 23455
Epoch time: 08017.31341174
Element set: 980
Inclination: 098.9644 deg
RA of node: 089.3640 deg
Eccentricity: 0.0009117
Arg of perigee: 209.7324 deg
Mean anomaly: 150.3352 deg
Mean motion: 14.13734564 rev/day
Decay rate: 2.63e-06 rev/day^2
Epoch rev: 67289
Checksum: 306
Satellite: SICH-1
Catalog number: 23657
Epoch time: 08017.12011374
Element set: 279
Inclination: 082.5246 deg
RA of node: 237.9016 deg
Eccentricity: 0.0022298
Arg of perigee: 260.0733 deg
Mean anomaly: 099.7977 deg
Mean motion: 14.81544734 rev/day
Decay rate: 2.22e-06 rev/day^2
Epoch rev: 66770
Checksum: 307
Satellite: NOAA-15
Catalog number: 25338
Epoch time: 08017.44903604
Element set: 316
Inclination: 098.5465 deg
RA of node: 013.2419 deg
Eccentricity: 0.0011439
Arg of perigee: 121.8106 deg
Mean anomaly: 238.4212 deg
Mean motion: 14.24682387 rev/day
Decay rate: 1.01e-06 rev/day^2
Epoch rev: 50319
Checksum: 274
Satellite: RESURS
Catalog number: 25394
Epoch time: 08017.21304911
Element set: 833
Inclination: 098.4120 deg
RA of node: 067.9319 deg
Eccentricity: 0.0000983
Arg of perigee: 322.6067 deg
Mean anomaly: 037.5043 deg
Mean motion: 14.24152312 rev/day
Decay rate: -1.1e-07 rev/day^2
Epoch rev: 49481
Checksum: 265
Satellite: FENGYUN1
Catalog number: 25730
Epoch time: 08017.80453621
Element set: 317
Inclination: 098.7116 deg
RA of node: 358.7907 deg
Eccentricity: 0.0020221
Arg of perigee: 236.4741 deg
Mean anomaly: 123.4497 deg
Mean motion: 14.07663169 rev/day
Decay rate: 8.2e-07 rev/day^2
Epoch rev: 44766
Checksum: 299
Satellite: OKEAN-0
Catalog number: 25860
Epoch time: 08017.00627420
Element set: 264
Inclination: 097.7402 deg
RA of node: 014.3727 deg
Eccentricity: 0.0001857
Arg of perigee: 063.3016 deg
Mean anomaly: 296.8373 deg
Mean motion: 14.73496993 rev/day
Decay rate: 4.9e-07 rev/day^2
Epoch rev: 45698
Checksum: 312
Satellite: NOAA-16
Catalog number: 26536
Epoch time: 08017.47468720
Element set: 765
Inclination: 099.1437 deg
RA of node: 003.4292 deg
Eccentricity: 0.0009766
Arg of perigee: 293.7160 deg
Mean anomaly: 066.2976 deg
Mean motion: 14.12464828 rev/day
Decay rate: -2.40e-06 rev/day^2
Epoch rev: 37735
Checksum: 328
Satellite: NOAA-17
Catalog number: 27453
Epoch time: 08017.34689710
Element set: 764
Inclination: 098.5551 deg
RA of node: 086.2428 deg
Eccentricity: 0.0011862
Arg of perigee: 186.2044 deg
Mean anomaly: 173.8993 deg
Mean motion: 14.23942153 rev/day
Decay rate: 1.29e-06 rev/day^2
Epoch rev: 28919
Checksum: 331
Satellite: NOAA-18
Catalog number: 28654
Epoch time: 08017.31909626
Element set: 276
Inclination: 098.8538 deg
RA of node: 320.2429 deg
Eccentricity: 0.0014776
Arg of perigee: 026.2361 deg
Mean anomaly: 333.9559 deg
Mean motion: 14.11130857 rev/day
Decay rate: 4.68e-06 rev/day^2
Epoch rev: 13705
Checksum: 321
/EX
SB KEPS @ AMSAT $ORB08017.M
Orbital Elements 08017.MISC
HR AMSAT ORBITAL ELEMENTS FOR MANNED AND MISCELLANEOUS SATELLITES
FROM WA5QGD FORT WORTH,TX January 17, 2008
Send Subscribe/unsubscribe to KEPS at
http://www.amsat.org/mailman/listinfo/keps
BID: ORB08017.M
TO ALL RADIO AMATEURS BT
Satellite: HUBBLE
Catalog number: 20580
Epoch time: 08017.81126465
Element set: 50
Inclination: 028.4683 deg
RA of node: 230.5038 deg
Eccentricity: 0.0003895
Arg of perigee: 217.1770 deg
Mean anomaly: 142.8542 deg
Mean motion: 15.00327835 rev/day
Decay rate: 3.47e-06 rev/day^2
Epoch rev: 77222
Checksum: 274
Satellite: UARS
Catalog number: 21701
Epoch time: 08017.70933868
Element set: 268
Inclination: 056.9744 deg
RA of node: 101.6407 deg
Eccentricity: 0.0082293
Arg of perigee: 245.0752 deg
Mean anomaly: 114.1735 deg
Mean motion: 15.50283515 rev/day
Decay rate: 6.017e-05 rev/day^2
Epoch rev: 89899
Checksum: 312
Satellite: PO-34
Catalog number: 25520
Epoch time: 08016.64991711
Element set: 910
Inclination: 028.4596 deg
RA of node: 119.9491 deg
Eccentricity: 0.0005037
Arg of perigee: 065.1744 deg
Mean anomaly: 294.9376 deg
Mean motion: 15.17116983 rev/day
Decay rate: 4.71e-06 rev/day^2
Epoch rev: 50997
Checksum: 328
Satellite: ISS
Catalog number: 25544
Epoch time: 08017.94000000
Element set: 735
Inclination: 051.6386 deg
RA of node: 076.3166 deg
Eccentricity: 0.0005494
Arg of perigee: 294.4977 deg
Mean anomaly: 055.3091 deg
Mean motion: 15.77157562 rev/day
Decay rate: 2.4699e-04 rev/day^2
Epoch rev: 52465
Checksum: 314
Satellite: OO-38
Catalog number: 26063
Epoch time: 08016.75309043
Element set: 112
Inclination: 100.2130 deg
RA of node: 063.7076 deg
Eccentricity: 0.0036551
Arg of perigee: 279.0439 deg
Mean anomaly: 080.6601 deg
Mean motion: 14.35825229 rev/day
Decay rate: -3.3e-07 rev/day^2
Epoch rev: 41769
Checksum: 275
Satellite: UWE-1
Catalog number: 28892
Epoch time: 08016.96663781
Element set: 950
Inclination: 098.1123 deg
RA of node: 274.0985 deg
Eccentricity: 0.0017763
Arg of perigee: 161.5822 deg
Mean anomaly: 198.6054 deg
Mean motion: 14.59584264 rev/day
Decay rate: 2.28e-06 rev/day^2
Epoch rev: 11839
Checksum: 338
Satellite: CO-58
Catalog number: 28895
Epoch time: 08016.93886864
Element set: 924
Inclination: 098.1166 deg
RA of node: 274.3672 deg
Eccentricity: 0.0018133
Arg of perigee: 161.4985 deg
Mean anomaly: 198.6892 deg
Mean motion: 14.59626101 rev/day
Decay rate: 1.64e-06 rev/day^2
Epoch rev: 11827
Checksum: 357
Satellite: NCUBE2
Catalog number: 28897
Epoch time: 08017.26373056
Element set: 454
Inclination: 098.1136 deg
RA of node: 274.6237 deg
Eccentricity: 0.0017385
Arg of perigee: 162.7689 deg
Mean anomaly: 197.4084 deg
Mean motion: 14.59793487 rev/day
Decay rate: 1.29e-06 rev/day^2
Epoch rev: 11060
Checksum: 338
Satellite: FCAL
Catalog number: 29667
Epoch time: 08017.53173000
Element set: 676
Inclination: 051.6323 deg
RA of node: 042.6567 deg
Eccentricity: 0.0010273
Arg of perigee: 100.6956 deg
Mean anomaly: 259.5214 deg
Mean motion: 15.99197591 rev/day
Decay rate: 3.8967e-04 rev/day^2
Epoch rev: 6216
Checksum: 313
Satellite: FALCON
Catalog number: 30776
Epoch time: 08017.38183232
Element set: 227
Inclination: 035.4347 deg
RA of node: 354.0660 deg
Eccentricity: 0.0000460
Arg of perigee: 180.8220 deg
Mean anomaly: 179.2495 deg
Mean motion: 15.02855322 rev/day
Decay rate: 4.53e-06 rev/day^2
Epoch rev: 4729
Checksum: 274
Satellite: MAST
Catalog number: 31126
Epoch time: 08016.68225489
Element set: 232
Inclination: 098.0607 deg
RA of node: 087.0763 deg
Eccentricity: 0.0095780
Arg of perigee: 084.6680 deg
Mean anomaly: 276.5436 deg
Mean motion: 14.53393131 rev/day
Decay rate: 6.5e-07 rev/day^2
Epoch rev: 3986
Checksum: 314
Satellite: CAPE1
Catalog number: 31130
Epoch time: 08017.71980727
Element set: 213
Inclination: 098.0617 deg
RA of node: 087.4337 deg
Eccentricity: 0.0104186
Arg of perigee: 083.4934 deg
Mean anomaly: 277.8110 deg
Mean motion: 14.51922048 rev/day
Decay rate: -1.29e-06 rev/day^2
Epoch rev: 3974
Checksum: 293
/EX
More information about the Keps
mailing list